Jaipur, India

10:51 PM IST on June 27, 2017 (GMT +0530)
Jaipur

Weather History for VIJP - January, 2014

Change the Weather History Date:

Wednesday, January 8, 2014

  Actual Average Record
Temperature  
Mean Temperature 56 °F -  
Max Temperature 71 °F - - ()
Min Temperature 42 °F - - ()
Degree Days  
Heating Degree Days 8    
Growing Degree Days 6 (Base 50)    
Moisture  
Dew Point 38 °F    
Average Humidity 43    
Maximum Humidity 66    
Minimum Humidity 17    
Precipitation  
Precipitation 0.00 in - - ()
Sea Level Pressure  
Sea Level Pressure 30.04 in    
Wind  
Wind Speed 5 mph ()    
Max Wind Speed 12 mph    
Max Gust Speed -    
Visibility 1.7 miles    
Events      
T = Trace of Precipitation, MM = Missing Value Source: Averaged Metar Reports

Daily Weather History Graph

Daily Weather History Graph

Search for Another Location

Airport or City:

Trip Planner

Search our weather history database for the weather conditions in past years. The results will help you decide how hot, cold, wet, or windy it might be!

Date:

Astronomy

Jan. 08, 2014 Rise Set
Actual Time 7:16 AM IST 5:49 PM IST
Civil Twilight 6:51 AM IST 6:15 PM IST
Nautical Twilight 6:23 AM IST 6:43 PM IST
Astronomical Twilight 5:54 AM IST 7:12 PM IST
Moon 12:07 PM IST (1/8) No Moon Set
Length of Visible Light 11h 23m
Length of Day
10h 32m
Waxing Crescent, 51% of the Moon is Illuminated
Jan 8
Waxing Crescent
Jan 16
Full
Jan 24
Last Quarter
Jan 31
New
Feb 7
First Quarter

Hourly Weather History & Observations

Time (IST) Temp. Dew Point Humidity Pressure Visibility Wind Dir Wind Speed Gust Speed Precip Events Conditions
2:30 AM 45 °F 36 °F 61% 30.08 in 1 mi Calm Calm - -   Smoke
5:30 AM 46 °F 35 °F 55% 30.09 in 1 mi Calm Calm - -   Smoke
7:00 AM 44.6 °F 33.8 °F 66% 30.06 in 1.2 mi Variable 2.3 mph - N/A   Smoke
8:30 AM 46 °F 35 °F 55% 30.11 in 1 mi East 2.3 mph - -   Smoke
9:00 AM 55.4 °F 35.6 °F 47% 30.12 in 1.6 mi ESE 5.8 mph - N/A   Smoke
11:00 AM 60.8 °F 35.6 °F 39% 30.12 in 1.9 mi SE 10.4 mph - N/A   Smoke
11:30 AM 65 °F 35 °F 22% 30.07 in 1 mi SE 11.5 mph - -   Haze
12:00 PM 66.2 °F 35.6 °F 32% 30.09 in 2.5 mi ESE 10.4 mph - N/A   Haze
1:00 PM 68.0 °F 35.6 °F 30% 30.04 in 2.5 mi SE 10.4 mph - N/A   Haze
2:00 PM 68.0 °F 32.0 °F 26% 30.01 in 2.5 mi Variable 9.2 mph - N/A   Haze
2:30 PM 69 °F 35 °F 17% 29.97 in 2 mi SE 6.9 mph - -   Haze
4:00 PM 69.8 °F 37.4 °F 31% 29.98 in 3.1 mi SE 6.9 mph - N/A   Haze
5:00 PM 68.0 °F 39.2 °F 35% 29.98 in 3.1 mi SE 6.9 mph - N/A   Haze
5:30 PM 66 °F 41 °F 28% 29.96 in 2 mi SE 4.6 mph - -   Haze
6:00 PM 64.4 °F 41.0 °F 42% 29.98 in 2.5 mi ESE 4.6 mph - N/A   Haze
7:00 PM 64.4 °F 41.0 °F 42% 30.01 in 1.6 mi East 4.6 mph - N/A   Haze
8:00 PM 59.0 °F 41.0 °F 51% 30.01 in 1.2 mi East 3.5 mph - N/A   Smoke
8:30 PM 57 °F 42 °F 45% 30.01 in 1 mi East 4.6 mph - -   Smoke
9:00 PM 57.2 °F 41.0 °F 55% 30.04 in 1.2 mi East 5.8 mph - N/A   Smoke
10:00 PM 59.0 °F 42.8 °F 55% 30.04 in 1.2 mi East 10.4 mph - N/A   Smoke
11:00 PM 57.2 °F 42.8 °F 59% 30.04 in 1.2 mi East 9.2 mph - N/A   Smoke
11:30 PM 57 °F 43 °F 49% 29.99 in 1 mi East 5.8 mph - -   Smoke